Location: Newark
(30.0333°N, 31.2167°E)
Time: 10:41:48
(UTC+00:00)

Tiros 1 - Pass Details

Date: 26 January 2020
Orbit: 631 x 664 km, 48.4° (Epoch: 25 February)

Event Time Altitude Azimuth Distance (km) Brightness Sun altitude
Rises 08:00:16 0° 196° (SSW) 2,903 11.0 32.3°
Reaches altitude 10° 08:02:56 10° 182° (S) 2,002 10.6 32.7°
Maximum altitude 08:06:35 23° 130° (SE) 1,341 10.6 33.1°
Drops below altitude 10° 08:10:15 10° 77° (ENE) 2,023 10.1 33.6°
Sets 08:12:58 0° 63° (ENE) 2,942 10.6 33.9°
